Location: Sternwarte_Laufen
(47.9344°N, 12.9346°E)
Time: 04:35:47
(UTC+02:00)

ISS - Pass Details

Date: 15 July 2025
Orbit: 413 x 417 km, 51.6° (Epoch: 12 July)

Event Time Altitude Azimuth Distance (km) Brightness Sun altitude
Rises 00:21:26 0° 292° (WNW) 2,356 0.5 -19.5°
Reaches altitude 10° 00:23:32 10° 295° (WNW) 1,492 -0.5 -19.6°
Maximum altitude 00:26:52 68° 18° (NNE) 451 -3.5 -19.7°
Enters shadow 00:27:34 50° 80° (E) 539 -3.3 -19.8°
